Fairmont, MN

5:12 PM CDT on April 22, 2018 (GMT -0500)
Fairmont Municipal

Weather History for KFRM - June, 2014

Change the Weather History Date:

Thursday, June 19, 2014

  Actual Average Record
Temperature  
Mean Temperature 70 °F -  
Max Temperature 75 °F 80 °F 98 °F (1953)
Min Temperature 66 °F 57 °F 44 °F (2004)
Cooling Degree Days 6    
Growing Degree Days 20 (Base 50)    
Moisture  
Dew Point 65 °F    
Average Humidity 81    
Maximum Humidity 88    
Minimum Humidity 73    
Precipitation  
Precipitation 0.58 in - - ()
Sea Level Pressure  
Sea Level Pressure 29.88 in    
Wind  
Wind Speed 16 mph (SE)    
Max Wind Speed 31 mph    
Max Gust Speed 40 mph    
Visibility 9 miles    
Events Thunderstorm    
Averages and records for this station are not official NWS values.
T = Trace of Precipitation, MM = Missing Value Source: NWS Daily Summary

Daily Weather History Graph

Daily Weather History Graph

Search for Another Location

Airport or City:

Astronomy

Jun. 19, 2014 Rise Set
Actual Time 5:35 AM CDT 9:02 PM CDT
Civil Twilight 4:59 AM CDT 9:38 PM CDT
Nautical Twilight 4:12 AM CDT 10:25 PM CDT
Astronomical Twilight 3:13 AM CDT 11:25 PM CDT
Moon 12:54 AM CDT (6/19) 1:20 PM CDT (6/19)
Length of Visible Light 16h 38m
Length of Day
15h 26m
Waning Gibbous, 51% of the Moon is Illuminated
Jun 19
Waning Gibbous
Jun 19
Last Quarter
Jun 27
New
Jul 5
First Quarter
Jul 12
Full

Hourly Weather History & Observations

Time (CDT) Temp. Dew Point Humidity Pressure Visibility Wind Dir Wind Speed Gust Speed Precip Events Conditions
12:15 AM 73.4 °F 66.2 °F 78% 29.84 in 10.0 mi ESE 16.1 mph 20.7 mph N/A   Clear
12:35 AM 73.4 °F 66.2 °F 78% 29.84 in 10.0 mi ESE 16.1 mph - N/A   Mostly Cloudy
12:55 AM 73.4 °F 66.2 °F 78% 29.84 in 10.0 mi SE 15.0 mph 20.7 mph N/A   Overcast
1:15 AM 73.4 °F 66.2 °F 78% 29.84 in 10.0 mi SE 19.6 mph 23.0 mph N/A   Overcast
1:35 AM 73.4 °F 66.2 °F 78% 29.82 in 10.0 mi SE 20.7 mph 25.3 mph N/A   Overcast
1:55 AM 71.6 °F 66.2 °F 83% 29.81 in 10.0 mi SE 18.4 mph 23.0 mph N/A   Mostly Cloudy
2:15 AM 73.4 °F 66.2 °F 78% 29.80 in 10.0 mi SE 19.6 mph 26.5 mph N/A   Mostly Cloudy
2:35 AM 73.4 °F 66.2 °F 78% 29.79 in 10.0 mi SE 18.4 mph 23.0 mph N/A   Scattered Clouds
2:55 AM 73.4 °F 66.2 °F 78% 29.80 in 10.0 mi SE 17.3 mph - N/A   Mostly Cloudy
3:15 AM 73.4 °F 66.2 °F 78% 29.80 in 10.0 mi SE 12.7 mph 18.4 mph N/A   Mostly Cloudy
3:35 AM 73.4 °F 66.2 °F 78% 29.81 in 10.0 mi SSE 15.0 mph - N/A   Overcast
3:55 AM 73.4 °F 68.0 °F 83% 29.78 in 10.0 mi SE 15.0 mph - N/A   Mostly Cloudy
4:15 AM 73.4 °F 66.2 °F 78% 29.78 in 10.0 mi SSE 19.6 mph 23.0 mph N/A   Mostly Cloudy
4:35 AM 73.4 °F 66.2 °F 78% 29.78 in 10.0 mi SE 15.0 mph - N/A   Overcast
5:15 AM 71.6 °F 66.2 °F 83% 29.81 in 10.0 mi SE 17.3 mph 23.0 mph N/A   Overcast
5:35 AM 71.6 °F 66.2 °F 83% 29.81 in 10.0 mi SE 18.4 mph 25.3 mph N/A   Overcast
5:55 AM 71.6 °F 66.2 °F 83% 29.84 in 10.0 mi SE 19.6 mph 25.3 mph N/A   Overcast
6:15 AM 71.6 °F 64.4 °F 78% 29.85 in 10.0 mi SE 19.6 mph 32.2 mph N/A   Overcast
6:35 AM 71.6 °F 64.4 °F 78% 29.85 in 10.0 mi SE 25.3 mph 32.2 mph N/A   Overcast
6:55 AM 69.8 °F 62.6 °F 78% 29.86 in 10.0 mi SE 29.9 mph 35.7 mph N/A   Overcast
7:15 AM 68.0 °F 62.6 °F 83% 29.87 in 9.0 mi SE 31.1 mph 40.3 mph N/A   Overcast
7:35 AM 66.2 °F 62.6 °F 88% 29.88 in 10.0 mi SE 24.2 mph 36.8 mph N/A   Overcast
7:55 AM 66.2 °F 62.6 °F 88% 29.88 in 10.0 mi SE 25.3 mph 35.7 mph N/A Thunderstorm Thunderstorm
8:15 AM 66.2 °F 62.6 °F 88% 29.90 in 1.5 mi SE 23.0 mph 28.8 mph 0.33 in Thunderstorm Thunderstorm
8:35 AM 66.2 °F 62.6 °F 88% 29.93 in 10.0 mi SE 17.3 mph - 0.35 in Thunderstorm Thunderstorm
8:55 AM 66.2 °F 62.6 °F 88% 29.92 in 10.0 mi ESE 20.7 mph 25.3 mph 0.35 in   Overcast
9:15 AM 66.2 °F 62.6 °F 88% 29.93 in 10.0 mi SE 25.3 mph 29.9 mph N/A   Overcast
10:15 AM 68.0 °F 62.6 °F 83% 29.88 in 10.0 mi ESE 24.2 mph 28.8 mph N/A   Partly Cloudy
10:35 AM 69.8 °F 62.6 °F 78% 29.87 in 10.0 mi ESE 24.2 mph 29.9 mph N/A   Clear
10:55 AM 71.6 °F 64.4 °F 78% 29.86 in 10.0 mi SE 25.3 mph 33.4 mph N/A   Scattered Clouds
11:15 AM 71.6 °F 64.4 °F 78% 29.86 in 10.0 mi SE 24.2 mph 36.8 mph N/A   Mostly Cloudy
11:35 AM 73.4 °F 64.4 °F 73% 29.86 in 10.0 mi SE 23.0 mph 33.4 mph N/A   Overcast
11:55 AM 73.4 °F 64.4 °F 73% 29.86 in 10.0 mi SE 28.8 mph 35.7 mph N/A   Overcast
12:15 PM 73.4 °F 66.2 °F 78% 29.88 in 10.0 mi SE 28.8 mph 33.4 mph N/A   Overcast
12:35 PM 73.4 °F 66.2 °F 78% 29.89 in 10.0 mi SE 24.2 mph 27.6 mph N/A   Overcast
12:55 PM 75.2 °F 66.2 °F 73% 29.90 in 10.0 mi SSE 18.4 mph - N/A   Overcast
1:15 PM 75.2 °F 66.2 °F 73% 29.87 in 10.0 mi SSE 17.3 mph - N/A   Overcast
1:35 PM 75.2 °F 66.2 °F 73% 29.86 in 10.0 mi SSE 19.6 mph - N/A   Overcast
1:55 PM 75.2 °F 66.2 °F 73% 29.87 in 10.0 mi South 18.4 mph 23.0 mph N/A   Overcast
2:15 PM 75.2 °F 66.2 °F 73% 29.87 in 10.0 mi SSE 17.3 mph 23.0 mph N/A   Overcast
2:35 PM 73.4 °F 66.2 °F 78% 29.88 in 10.0 mi South 19.6 mph - N/A Thunderstorm Overcast
2:55 PM 73.4 °F 66.2 °F 78% 29.90 in 8.0 mi South 16.1 mph - 0.04 in Thunderstorm Thunderstorm
3:15 PM 69.8 °F 64.4 °F 83% 29.91 in 8.0 mi Calm Calm - 0.08 in Thunderstorm Thunderstorm
3:35 PM 69.8 °F 64.4 °F 83% 29.91 in 7.0 mi SE 9.2 mph - 0.13 in Thunderstorm Thunderstorm
3:55 PM 71.6 °F 66.2 °F 83% 29.90 in 10.0 mi SSE 11.5 mph - 0.13 in   Overcast
4:15 PM 69.8 °F 64.4 °F 83% 29.91 in 10.0 mi South 11.5 mph 20.7 mph 0.02 in Thunderstorm Overcast
4:35 PM 69.8 °F 64.4 °F 83% 29.92 in 10.0 mi South 9.2 mph - 0.04 in   Overcast
4:55 PM 69.8 °F 64.4 °F 83% 29.90 in 10.0 mi SSE 8.1 mph - 0.05 in Thunderstorm Overcast
5:15 PM 69.8 °F 64.4 °F 83% 29.89 in 10.0 mi South 4.6 mph - 0.01 in   Mostly Cloudy
5:35 PM 69.8 °F 62.6 °F 78% 29.90 in 10.0 mi SE 6.9 mph - 0.01 in   Scattered Clouds
5:55 PM 69.8 °F 64.4 °F 83% 29.91 in 10.0 mi ESE 5.8 mph - 0.01 in   Mostly Cloudy
6:15 PM 69.8 °F 64.4 °F 83% 29.91 in 10.0 mi Calm Calm - N/A   Overcast
6:35 PM 69.8 °F 64.4 °F 83% 29.92 in 10.0 mi ESE 4.6 mph - N/A   Overcast
6:55 PM 69.8 °F 64.4 °F 83% 29.91 in 10.0 mi ESE 6.9 mph - N/A   Overcast
7:15 PM 69.8 °F 64.4 °F 83% 29.92 in 10.0 mi ESE 5.8 mph - N/A   Mostly Cloudy
7:35 PM 69.8 °F 64.4 °F 83% 29.93 in 10.0 mi SE 9.2 mph - N/A   Mostly Cloudy
7:55 PM 69.8 °F 62.6 °F 78% 29.94 in 10.0 mi SE 5.8 mph - N/A   Overcast
8:15 PM 69.8 °F 62.6 °F 78% 29.94 in 10.0 mi SSE 4.6 mph - N/A   Overcast
8:35 PM 69.8 °F 62.6 °F 78% 29.94 in 10.0 mi SE 4.6 mph - N/A   Overcast
8:55 PM 69.8 °F 62.6 °F 78% 29.94 in 10.0 mi SE 5.8 mph - N/A   Overcast
9:15 PM 68.0 °F 62.6 °F 83% 29.94 in 10.0 mi SSE 4.6 mph - N/A   Mostly Cloudy
9:35 PM 68.0 °F 62.6 °F 83% 29.94 in 10.0 mi SE 3.5 mph - N/A   Partly Cloudy
9:55 PM 66.2 °F 62.6 °F 88% 29.95 in 2.5 mi Calm Calm - N/A   Partly Cloudy
10:15 PM 66.2 °F 62.6 °F 88% 29.96 in 8.0 mi Calm Calm - N/A   Scattered Clouds
10:35 PM 66.2 °F 62.6 °F 88% 29.97 in 10.0 mi SSE 5.8 mph - N/A   Overcast
10:55 PM 68.0 °F 64.4 °F 88% 29.97 in 9.0 mi SSE 4.6 mph - N/A   Overcast
11:15 PM 66.2 °F 62.6 °F 88% 29.97 in 7.0 mi SSE 5.8 mph - N/A   Scattered Clouds
11:35 PM 68.0 °F 64.4 °F 88% 29.97 in 1.5 mi South 6.9 mph - N/A   Mostly Cloudy
11:55 PM 68.0 °F 64.4 °F 88% 29.97 in 0.5 mi South 6.9 mph - N/A   Overcast